CW8078 Weather Reports


time (UTC)temp
F
wind
direction
speed
knots
gust
knots
rain 1hr
in
rain 24hr
in
rain mn
in
humidity
%
barometer
mb
20260902194802 98 161 0.0 0.0 0.00 0.00 0.00 47 1011.4
20260902194303 98 153 0.0 0.0 0.00 0.00 0.00 47 1011.6
20260902193302 99 202 0.0 0.0 0.00 0.00 0.00 47 1011.7
20260902191802 98 271 0.0 0.0 0.00 0.00 0.00 49 1012.0
20260902191302 99 277 0.0 0.0 0.00 0.00 0.00 49 1012.1
20260902190802 99 270 0.0 0.0 0.00 0.00 0.00 48 1012.1
20260902190303 99 268 0.0 0.0 0.00 0.00 0.00 52 1012.1
20260902184803 98 160 0.0 0.0 0.00 0.00 0.00 51 1012.2
20260902184303 98 160 0.0 0.0 0.00 0.00 0.00 49 1012.3
20260902183803 99 163 0.0 0.9 0.00 0.00 0.00 48 1012.3
20260902183303 98 161 0.0 0.0 0.00 0.00 0.00 50 1012.4
20260902181803 98 281 0.0 0.0 0.00 0.00 0.00 50 1012.6
20260902181303 98 246 0.0 0.0 0.00 0.00 0.00 52 1012.6
20260902180803 98 172 0.0 0.0 0.00 0.00 0.00 51 1012.7
20260902180303 97 248 0.0 0.9 0.00 0.00 0.00 52 1012.7
20260902174302 97 189 0.0 0.0 0.00 0.00 0.00 52 1012.9
20260902173803 97 228 0.0 0.9 0.00 0.00 0.00 51 1013.0
20260902173302 97 157 0.0 0.9 0.00 0.00 0.00 53 1013.1
20260902171802 96 152 0.0 0.0 0.00 0.00 0.00 52 1013.1
20260902171302 96 142 0.0 0.0 0.00 0.00 0.00 54 1013.2
20260902170802 95 319 0.0 0.0 0.00 0.00 0.00 55 1013.3
20260902170305 95 234 0.0 0.0 0.00 0.00 0.00 54 1013.3
20260902164803 93 168 0.0 0.0 0.00 0.00 0.00 57 1013.4
20260902164303 93 170 0.0 0.0 0.00 0.00 0.00 57 1013.5
20260902163803 92 175 0.0 0.0 0.00 0.00 0.00 58 1013.4
20260902163303 92 196 0.0 0.9 0.00 0.00 0.00 59 1013.4
20260902161802 91 234 0.0 0.0 0.00 0.00 0.00 62 1013.6
20260902161303 90 184 0.0 0.0 0.00 0.00 0.00 60 1013.6
20260902160803 90 182 0.0 0.0 0.00 0.00 0.00 60 1013.6
20260902160302 90 221 0.0 0.0 0.00 0.00 0.00 61 1013.7
20260902154803 89 193 0.0 0.0 0.00 0.00 0.00 63 1013.7
20260902154303 88 207 0.0 0.0 0.00 0.00 0.00 64 1013.7
20260902153803 88 176 0.0 0.0 0.00 0.00 0.00 65 1013.7
20260902153303 88 171 0.0 0.0 0.00 0.00 0.00 66 1013.7
20260902151302 86 179 0.0 0.0 0.00 0.00 0.00 67 1013.7
20260902150303 86 131 0.0 0.0 0.00 0.00 0.00 67 1013.7
20260902144803 85 156 0.0 0.0 0.00 0.00 0.00 69 1013.7
20260902144303 85 153 0.0 0.0 0.00 0.00 0.00 71 1013.6
20260902143803 84 153 0.0 0.0 0.00 0.00 0.00 70 1013.6
20260902143303 84 153 0.0 0.0 0.00 0.00 0.00 70 1013.7
20260902141802 83 151 0.0 0.0 0.00 0.00 0.00 73 1013.7
20260902141302 82 167 0.0 0.0 0.00 0.00 0.00 74 1013.8
20260902140303 82 167 0.0 0.0 0.00 0.00 0.00 73 1013.8
20260902134803 80 137 0.0 0.0 0.00 0.00 0.00 75 1013.9
20260902134302 80 137 0.0 0.0 0.00 0.00 0.00 76 1013.8
20260902133802 79 150 0.0 0.0 0.00 0.00 0.00 76 1013.8
20260902133302 79 150 0.0 0.0 0.00 0.00 0.00 77 1013.9
20260902131803 77 150 0.0 0.0 0.00 0.00 0.00 82 1013.8
20260902131303 76 150 0.0 0.0 0.00 0.00 0.00 82 1013.9
20260902130302 75 150 0.0 0.0 0.00 0.00 0.00 85 1013.8
20260902124802 75 150 0.0 0.0 0.00 0.00 0.00 83 1013.8
20260902124303 75 150 0.0 0.0 0.00 0.00 0.00 83 1013.8
20260902123803 75 150 0.0 0.0 0.00 0.00 0.00 84 1013.8
20260902123302 75 150 0.0 0.0 0.00 0.00 0.00 84 1013.7
20260902121303 74 150 0.0 0.0 0.00 0.00 0.00 85 1013.5
20260902120802 74 150 0.0 0.0 0.00 0.00 0.00 85 1013.5
20260902120303 74 150 0.0 0.0 0.00 0.00 0.00 84 1013.5
20260902114303 75 150 0.0 0.0 0.00 0.00 0.00 83 1013.3
20260902113303 75 150 0.0 0.0 0.00 0.00 0.00 84 1013.3
20260902111803 73 150 0.0 0.0 0.00 0.00 0.00 86 1013.3
20260902111303 73 150 0.0 0.0 0.00 0.00 0.00 87 1013.3
20260902110803 73 150 0.0 0.0 0.00 0.00 0.00 87 1013.3
20260902110303 73 150 0.0 0.0 0.00 0.00 0.00 87 1013.2
20260902104802 73 150 0.0 0.0 0.00 0.00 0.00 86 1013.2
20260902104303 73 150 0.0 0.0 0.00 0.00 0.00 85 1013.2
20260902103803 74 150 0.0 0.0 0.00 0.00 0.00 85 1013.1
20260902103303 74 150 0.0 0.0 0.00 0.00 0.00 85 1013.1
20260902101803 74 150 0.0 0.0 0.00 0.00 0.00 85 1013.1
20260902101303 74 150 0.0 0.0 0.00 0.00 0.00 85 1013.1
20260902100803 74 150 0.0 0.0 0.00 0.00 0.00 85 1013.0
20260902100302 74 150 0.0 0.0 0.00 0.00 0.00 84 1012.9
20260902094803 75 150 0.0 0.0 0.00 0.00 0.00 84 1012.8
20260902093803 75 150 0.0 0.0 0.00 0.00 0.00 84 1012.8
20260902093303 75 150 0.0 0.0 0.00 0.00 0.00 82 1012.7
20260902091303 76 150 0.0 0.0 0.00 0.00 0.00 82 1012.6
20260902090803 76 150 0.0 0.0 0.00 0.00 0.00 82 1012.5
20260902090303 76 150 0.0 0.0 0.00 0.00 0.00 81 1012.4
20260902084803 77 150 0.0 0.0 0.00 0.00 0.00 80 1012.4
20260902084303 77 150 0.0 0.0 0.00 0.00 0.00 80 1012.3
20260902083803 77 150 0.0 0.0 0.00 0.00 0.00 79 1012.3
20260902083303 77 150 0.0 0.0 0.00 0.00 0.00 80 1012.4
20260902081802 78 150 0.0 0.0 0.00 0.00 0.00 81 1012.5
20260902081302 78 150 0.0 0.0 0.00 0.00 0.00 80 1012.5
20260902080303 79 150 0.0 0.0 0.00 0.00 0.00 78 1012.4
20260902074803 79 150 0.0 0.0 0.00 0.00 0.00 77 1012.2
20260902073803 78 150 0.0 0.0 0.00 0.00 0.00 80 1012.3
20260902073303 78 150 0.0 0.0 0.00 0.00 0.00 80 1012.4
20260902071803 78 150 0.0 0.0 0.00 0.00 0.00 80 1012.4
20260902071303 79 150 0.0 0.0 0.00 0.00 0.00 79 1012.4
20260902070803 79 150 0.0 0.0 0.00 0.00 0.00 78 1012.3
20260902070303 79 150 0.0 0.0 0.00 0.00 0.00 78 1012.3
20260902064803 79 150 0.0 0.0 0.00 0.00 0.00 77 1012.4
20260902064303 80 150 0.0 0.0 0.00 0.00 0.00 77 1012.4
20260902063803 80 150 0.0 0.0 0.00 0.00 0.00 77 1012.3
20260902063303 80 150 0.0 0.0 0.00 0.00 0.00 77 1012.4
20260902061803 80 150 0.0 0.0 0.00 0.00 0.00 75 1012.3
20260902061303 81 150 0.0 0.0 0.00 0.00 0.00 75 1012.3
20260902060803 81 150 0.0 0.0 0.00 0.00 0.00 76 1012.3
20260902060303 81 150 0.0 0.0 0.00 0.00 0.00 75 1012.2
20260902053803 80 138 0.0 0.0 0.00 0.00 0.00 77 1012.2
20260902053303 80 138 0.0 0.0 0.00 0.00 0.00 77 1012.3
20260902051803 80 138 0.0 0.0 0.00 0.00 0.00 76 1012.3
20260902051303 80 138 0.0 0.0 0.00 0.00 0.00 76 1012.3
20260902050803 81 138 0.0 0.0 0.00 0.00 0.00 75 1012.2
20260902050304 81 138 0.0 0.0 0.00 0.00 0.00 75 1012.2
20260902044804 82 138 0.0 0.0 0.00 0.00 0.00 73 1012.1
20260902043803 82 138 0.0 0.0 0.00 0.00 0.00 72 1012.1
20260902043303 83 138 0.0 0.0 0.00 0.00 0.00 71 1012.0
20260902041803 82 157 0.0 0.0 0.00 0.00 0.00 72 1011.9
20260902041303 82 157 0.0 0.0 0.00 0.00 0.00 72 1011.9
20260902040803 83 157 0.0 0.0 0.00 0.00 0.00 71 1011.9
20260902040303 83 157 0.0 0.0 0.00 0.00 0.00 71 1011.9
20260902034803 83 155 0.0 0.0 0.00 0.00 0.00 71 1012.0
20260902034303 83 123 0.0 0.0 0.00 0.00 0.00 71 1012.0
20260902033304 83 123 0.0 0.0 0.00 0.00 0.00 71 1012.1
20260902031803 82 123 0.0 0.0 0.00 0.00 0.00 71 1012.1
20260902031304 82 123 0.0 0.0 0.00 0.00 0.00 72 1012.1
20260902030304 82 123 0.0 0.0 0.00 0.00 0.00 73 1012.1
20260902024803 82 117 0.0 0.0 0.00 0.00 0.00 73 1011.9
20260902024303 82 117 0.0 0.0 0.00 0.00 0.00 75 1011.9
20260902023803 82 117 0.0 0.0 0.00 0.00 0.00 73 1011.8
20260902023303 82 117 0.0 0.0 0.00 0.00 0.00 73 1011.7
20260902021803 81 117 0.0 0.0 0.00 0.00 0.00 74 1011.6
20260902021303 81 117 0.0 0.0 0.00 0.00 0.00 74 1011.6
20260902020803 81 117 0.0 0.0 0.00 0.00 0.00 75 1011.6
20260902020303 82 117 0.0 0.0 0.00 0.00 0.00 75 1011.5
20260902014803 82 117 0.0 0.0 0.00 0.00 0.00 73 1011.4
20260902014303 82 117 0.0 0.0 0.00 0.00 0.00 72 1011.4
20260902013303 83 117 0.0 0.0 0.00 0.00 0.00 72 1011.3
20260902011803 83 117 0.0 0.0 0.00 0.00 0.00 69 1011.2
20260902011303 84 117 0.0 0.0 0.00 0.00 0.00 70 1011.2
20260902010803 84 117 0.0 0.0 0.00 0.00 0.00 70 1011.2
20260902010303 84 117 0.0 0.0 0.00 0.00 0.00 70 1011.2
20260902004803 84 117 0.0 0.0 0.00 0.00 0.00 71 1011.2
20260902004304 85 117 0.0 0.0 0.00 0.00 0.00 70 1011.1
20260902003803 85 117 0.0 0.0 0.00 0.00 0.00 70 1011.1
20260902003304 85 117 0.0 0.0 0.00 0.00 0.00 68 1011.2
20260902001303 87 117 0.0 0.0 0.00 0.00 0.00 68 1011.1
20260902000803 87 117 0.0 0.0 0.00 0.00 0.00 69 1011.1
20260902000304 87 117 0.0 0.0 0.00 0.00 0.00 67 1011.1
20260901234303 88 117 0.0 0.0 0.00 0.00 0.00 66 1011.3
20260901233303 89 117 0.0 0.0 0.00 0.00 0.00 64 1011.2
20260901231804 90 117 0.0 0.0 0.00 0.00 0.00 67 1011.3
20260901231303 90 117 0.0 0.0 0.00 0.00 0.00 65 1011.3
20260901230803 90 117 0.0 0.0 0.00 0.00 0.00 65 1011.3
20260901230303 91 117 0.0 0.0 0.00 0.00 0.00 62 1011.3
20260901224803 91 5 0.0 0.0 0.00 0.00 0.00 63 1011.2
20260901224303 91 5 0.0 0.0 0.00 0.00 0.00 63 1011.2
20260901223804 91 5 0.0 0.0 0.00 0.00 0.00 62 1011.2
20260901223303 92 5 0.0 0.0 0.00 0.00 0.00 61 1011.3
20260901221803 92 5 0.0 0.0 0.00 0.00 0.00 57 1011.4
20260901221303 92 5 0.0 0.0 0.00 0.00 0.00 56 1011.4
20260901220803 92 5 0.0 0.0 0.00 0.00 0.00 52 1011.4
20260901220303 93 5 0.0 0.0 0.00 0.00 0.00 59 1011.3
20260901214804 93 5 0.0 0.0 0.00 0.00 0.00 54 1011.3
20260901214303 93 5 0.0 0.0 0.00 0.00 0.00 54 1011.4
20260901213803 93 5 0.0 0.0 0.00 0.00 0.00 56 1011.4
20260901211303 94 5 0.0 0.0 0.00 0.00 0.00 51 1011.6
20260901210803 95 5 0.0 0.0 0.00 0.00 0.00 52 1011.6
20260901210304 94 5 0.0 0.0 0.00 0.00 0.00 54 1011.6
20260901204803 93 327 0.0 0.0 0.00 0.00 0.00 59 1011.8
20260901204303 93 327 0.0 0.0 0.00 0.00 0.00 60 1011.9
20260901203803 93 319 0.0 0.0 0.00 0.00 0.00 62 1011.9
20260901203304 93 319 0.0 0.0 0.00 0.00 0.00 61 1011.9
20260901200803 96 319 0.0 0.0 0.00 0.00 0.00 46 1012.3
20260901200303 96 319 0.0 0.0 0.00 0.00 0.00 47 1012.4